Starlink 35458

operational
NORAD ID: 65925 Int'l Des: 2025-225 Owner: SPXS Country: US Constellation: starlink
LEOCIRCULAR

About Starlink 35458

Description loading...

Live Position

Loading 3D Globe...

Upcoming Passes

Altitude History

Altitude vs Time

uPlot chart will show altitude changes over time

Two-Line Element Set

1 65925U 25225R 26062.62456670 .00034109 00000-0 11581-2 0 9990
2 65925 53.1611 193.5540 0001206 79.2462 280.8674 15.30210448 23482
Epoch: Mar 3, 2026 • Age: 35 hours

Current Status

Altitude 487.3 km
Velocity 7.62 km/s
Sub-Earth Point -36.23°S, 78.76°E
Launch Date Oct 8, 2025
Age 0.4 years
Type internet

Technical Details

Classification Payload
Mass 575.00 kg
Dry Mass 530.00 kg
Total Mass 575.00 kg
Length 0.30 m
Diameter 4.10 m
Span 29.00 m
Shape Box + pan
Manufacturer SPXS
Bus Type Starlink V2MO
Phase Status In Orbit
Owner/State SPXS/US

Large Constellations

Loading constellations...